Find SATURN

NORAD ID: 57174 Int'l Des: NNA 2023-091 Owner: KGTU Country: RU operational
LEOCIRCULARRETROGRADESSO

Current View

Loading 3D Globe...

About SATURN

Description loading...

Upcoming Passes

Passes for default location (London). Set your location on the main map for personalized predictions.

Altitude History

Loading altitude history...

Two-Line Element Set

1 57174U 23091J 26151.53170513 .00004286 00000-0 24059-3 0 9992
2 57174 97.5063 204.8662 0012789 198.3677 161.7094 15.13802472161113
Epoch: May 31, 2026 • Age: 7 hours

Current Status

Altitude 541.8 km
Velocity 7.60 km/s
Sub-Earth Point 77.38°N, 11.85°W
Launch Date Jun 27, 2023
Age 2.9 years
Type other

Technical Details

Classification Payload
Mass 10.00 kg
Dry Mass 10.00 kg
Total Mass 10.00 kg
Length 0.30 m
Diameter 0.20 m
Span 0.30 m
Shape Box
Manufacturer KGTU
Bus Type Cubesat 6U
Phase Status In Orbit
Owner/State KGTU/RU

Most Searched